Location: Tierra Monte Subdivision
(35.2092°N, 106.4864°W)
Time: 13:19:19
(UTC+00:00)

Delta 2 Rocket - Pass Details

Date: 30 March 2020
Orbit: 416 x 808 km, 35.6° (Epoch: 26 May)

Event Time Altitude Azimuth Distance (km) Brightness Sun altitude
Rises 03:00:54 0° 280° (W) 2,850 8.5 -19.8°
Reaches altitude 10° 03:03:08 10° 275° (W) 2,009 7.3 -20.2°
Maximum altitude 03:07:43 52° 200° (SSW) 849 4.2 -21.1°
Enters shadow 03:08:57 42° 155° (SSE) 996 4.2 -21.3°
